EW1556 Weather Reports


Display with metric or nautical units.
time (UTC)temp
F
wind
direction
speed
MPH
gust
MPH
rain 1hr
in
rain 24hr
in
rain mn
in
humidity
%
barometer
mb
20260503031550 70 228 3.0 9.0 0.00 0.06 0.06 39 1011.6
20260503030036 70 241 7.0 12.0 0.00 0.06 0.06 40 1011.7
20260503024536 71 256 9.0 14.0 0.00 0.06 0.06 39 1011.6
20260503023035 71 203 3.0 6.0 0.00 0.06 0.06 39 1011.5
20260503021534 72 34 0.0 0.0 0.00 0.06 0.06 48 1010.9
20260503020034 73 34 0.0 1.0 0.00 0.06 0.06 39 1010.5
20260503014540 74 34 0.0 5.0 0.00 0.06 0.06 36 1010.3
20260503013034 75 44 3.0 7.0 0.00 0.06 0.06 34 1010.2
20260503011540 75 60 6.0 8.0 0.00 0.06 0.06 31 1010.2
20260503010032 75 54 5.0 9.0 0.00 0.42 0.06 31 1010.2
20260503004532 76 70 4.0 9.0 0.00 0.42 0.06 31 1010.1
20260503003031 76 82 3.0 10.0 0.00 0.42 0.06 30 1010.0
20260503001530 76 64 7.0 10.0 0.00 0.42 0.06 29 1010.0
20260503000029 77 65 6.0 12.0 0.00 1.12 0.06 30 1010.0
20260502234528 77 59 8.0 12.0 0.00 1.12 0.06 26 1010.1
20260502233030 77 72 7.0 13.0 0.00 1.12 0.06 31 1010.2
20260502231524 77 63 7.0 16.0 0.00 1.12 0.06 31 1010.3
20260502230023 77 62 8.0 17.0 0.00 1.15 0.06 32 1010.4
20260502224520 77 80 9.0 15.0 0.00 1.15 0.06 32 1010.6
20260502223020 78 20 9.0 16.0 0.00 1.15 0.06 30 1010.7
20260502221618 77 33 9.0 18.0 0.00 1.15 0.06 31 1010.8
20260502220016 77 44 9.0 17.0 0.00 1.81 0.06 33 1011.0
20260502214511 77 60 8.0 14.0 0.00 1.81 0.06 30 1011.1
20260502213009 77 55 8.0 14.0 0.00 1.81 0.06 31 1011.3
20260502211518 77 53 8.0 13.0 0.00 1.81 0.06 32 1011.5
20260502210006 76 113 4.0 9.0 0.00 1.81 0.06 34 1011.7
20260502204501 75 59 6.0 12.0 0.00 1.81 0.06 34 1011.7
20260502203110 74 58 6.0 14.0 0.00 1.81 0.06 39 1011.8
20260502201556 74 80 8.0 13.0 0.00 1.81 0.06 39 1012.1
20260502200055 72 77 4.0 13.0 0.00 1.81 0.06 36 1012.3
20260502194554 72 71 7.0 15.0 0.00 1.81 0.06 38 1012.3
20260502193051 71 50 5.0 13.0 0.00 1.81 0.06 42 1012.4
20260502191548 71 28 7.0 12.0 0.00 1.81 0.06 44 1012.6
20260502190050 70 20 2.0 11.0 0.00 1.81 0.06 43 1012.8
20260502184543 69 43 7.0 12.0 0.00 1.81 0.06 44 1012.9
20260502183042 69 5 2.0 7.0 0.00 1.81 0.06 46 1013.0
20260502181539 68 342 0.0 6.0 0.00 1.81 0.06 45 1013.4
20260502163017 60 80 2.0 5.0 0.00 1.81 0.06 68 1012.9
20260502161513 58 39 1.0 4.0 0.00 1.81 0.06 76 1012.9
20260502151510 55 6 1.0 3.0 0.00 1.81 0.06 82 1013.0
20260502123045 53 289 1.0 3.0 0.00 1.75 0.00 79 1012.2
20260502121549 53 284 1.0 2.0 0.00 1.75 0.00 79 1012.2
20260502114543 53 288 0.0 0.0 0.00 1.75 0.00 79 1012.3
20260502113038 54 288 0.0 2.0 0.00 1.75 0.00 76 1012.3
20260502111536 55 275 1.0 3.0 0.00 1.75 0.00 75 1012.3
20260502110036 55 297 1.0 4.0 0.00 1.75 0.00 74 1012.3
20260502104543 56 40 0.0 0.0 0.00 1.75 0.00 73 1012.1
20260502103035 58 238 0.0 2.0 0.00 1.75 0.00 69 1012.1
20260502101532 58 160 0.0 2.0 0.00 1.75 0.00 68 1012.0
20260502091526 57 352 2.0 7.0 0.00 1.75 0.00 66 1011.9
20260502071517 57 251 0.0 2.0 0.00 1.75 0.00 66 1012.4
20260502070008 58 11 1.0 4.0 0.00 1.75 1.75 63 1012.5
20260502064511 59 298 0.0 1.0 0.00 1.75 1.75 61 1012.4
20260502063005 59 308 0.0 3.0 0.00 1.75 1.75 61 1012.7
20260502061506 57 274 3.0 5.0 0.00 1.75 1.75 63 1012.7
20260502060005 59 316 1.0 5.0 0.00 1.75 1.75 57 1012.2
20260502054512 59 326 3.0 5.0 0.00 1.75 1.75 56 1012.3
20260502053004 61 18 0.0 3.0 0.00 1.75 1.75 51 1012.5
20260502051504 60 299 0.0 2.0 0.00 1.75 1.75 52 1012.6
20260502050003 64 319 3.0 4.0 0.00 1.75 1.75 46 1012.3
20260502044502 63 342 1.0 2.0 0.00 1.75 1.75 47 1012.3
20260502043002 64 338 0.0 4.0 0.00 1.75 1.75 46 1012.3
20260502041502 64 23 1.0 3.0 0.00 1.75 1.75 44 1012.2
20260502040031 66 3 1.0 4.0 0.00 1.75 1.75 43 1012.2
20260502034600 67 17 3.0 7.0 0.00 1.75 1.75 41 1012.0
20260502033101 68 5 3.0 8.0 0.00 1.75 1.75 40 1011.8